ARIANE 2 DEB, 27650

Orbit data source: Space-Track

ARIANE 2 DEB, 27650 is space debris in HEO originally from a launch on Fri, 27 Jan 1989 UTC launched from the French Guiana (FRGUI). Debris objects in space refer to the collection of defunct objects orbiting the Earth. Examples of debris include non-operational satellites, rocket bodies, and fragments generated from explosions, collisions, or faulty payload assembly.

Loading next visibility...
Identifier
27650, 1989-006AE
Orbit
HEO
Country
Flag of FRFR
Related business
Manufacturer
EADS/LV
Mission
Spacecraft
Bus & Motor
Unknown
Mass
Unknown
Launch date (UTC)
1989-01-27 (37 years ago)
Launch vehicle
Unknown
Launch site
French Guiana (FRGUI)
Object type
Payload
Rocket body
Debris
Shape & HBR
Unknown shape, 0.3 m
Radar Cross Section
Medium (>0.1 m² and <1 m²)

Expand to show TLE details & history
Last TLE update: 3 days ago

TLE from 3 days ago
0 ARIANE 2 DEB
1 27650U 89006AE  26170.44136683  .00000078  00000-0  28939-3 0  9993
2 27650   8.1151 255.6291 7181309  70.3894 349.7625  2.33353693208179
Epoch: 2026-06-19T10:35Z
TLE epoch observation values (Epoch: 2026-06-19T10:35:34.094Z)
Latitude
-0.00001°
Longitude
-170.65302°
Altitude
2,968.57 km
Speed
8.287 km/s
True Right ascension
17h 03m 38s
True Declination
0° 00' 00"
Sunlit
Object was in full shadow at epoch
Visualization orbit readout
Latitude
Unknown
Longitude
Unknown
Altitude
Unknown
Speed
Unknown
Apparent Right ascension
Unknown
Apparent Declination
Unknown
Sunlit
N/A
Visualization observer readout
Local Sidereal Time
08:39:15
Azimuth
Unknown
Elevation
Unknown
Doppler factor
Unknown
Orbital elements
Apogee altitude
34,883.275 km
Perigee altitude
391.031 km
Semi-major axis
24,015.29 km
Eccentricity
0.71813
Inclination
8.1151°
RAAN
255.6291°
Arg. of periapsis
70.3894°
True anomaly
289.21852°
Mean anomaly
349.7625°
Eccentric anomaly
327.89398°
Mean motion
0.58319 °/min
Orbital period
617.29 mins
BSTAR
0.00028939
Loading maneuver chart data...
Computing Atmospheric mass density...
Loading historical data...
Loading historical data...
Loading historical data...
Loading historical data...
Loading historical data...
Loading historical data...
Loading historical data...

Documentation

Showing up to 5 results
|